Location: Banios
(43.0451°N, 0.2335°E)
Time: 00:56:03
(UTC+00:00)

Vanguard 1 Rocket - Visible Passes

Search period start: 12 May 2021 00:00
Search period end: 22 May 2021 00:00
Orbit: 652 x 4224 km, 34.3° (Epoch: 10 May)

Date Brightness Start Highest point End Pass type
(mag) Time Alt. Az. Time Alt. Az. Time Alt. Az.
12 May 11.7 03:09:09 10° SSE 03:23:09 18° SE 03:35:20 10° ESE visible
14 May 11.6 03:07:36 10° S 03:25:08 24° SE 03:40:14 10° E visible
15 May 11.7 02:01:07 10° SSE 02:11:56 14° SE 02:22:15 10° ESE visible
16 May 11.4 03:07:12 10° S 03:27:02 30° SE 03:44:11 10° E visible
17 May 11.5 01:58:29 10° SSE 02:13:41 20° SE 02:28:14 10° E visible
18 May 11.6 00:59:54 10° SE 01:00:54 10° SE 01:01:53 10° ESE visible
18 May 11.3 03:07:32 10° SSW 03:28:53 36° SE 03:47:39 10° E visible
19 May 11.4 01:58:37 11° S 02:15:21 25° SE 02:32:40 10° E visible
20 May 11.5 00:51:17 10° SSE 01:02:28 15° SE 01:14:00 10° E visible
20 May 11.2 03:08:23 10° SSW 03:30:43 42° SE 03:50:48 10° E visible
21 May 11.2 02:00:52 15° S 02:16:58 31° SE 02:36:20 10° E visible
